Sarasota, FL

4:30 AM EST on November 14, 2019 (GMT -0500)
Sarasota-bradenton

Weather History for KSRQ - September, 2019

Change the Weather History Date:

Sunday, September 15, 2019

  Actual Average Record
Temperature  
Mean Temperature 85 °F 82 °F  
Max Temperature 91 °F 89 °F 95 °F (1951)
Min Temperature 78 °F 74 °F 62 °F (1984)
Degree Days  
Heating Degree Days 0 0  
Month to date heating degree days 0 0  
Since 1 July heating degree days 0 0  
Cooling Degree Days 20 17  
Month to date cooling degree days 325 255  
Year to date cooling degree days 3183 2552  
Growing Degree Days 35 (Base 50)    
Moisture  
Dew Point 75 °F    
Average Humidity 74    
Maximum Humidity 91    
Minimum Humidity 56    
Precipitation  
Precipitation T in 0.24 in 1.26 in (1925)
Month to date precipitation 0.83 4.32  
Year to date precipitation 42.22 42.65  
Sea Level Pressure  
Sea Level Pressure 29.92 in    
Wind  
Wind Speed 6 mph ()    
Max Wind Speed 17 mph    
Max Gust Speed 22 mph    
Visibility 10.0 miles    
Events Rain , Thunderstorm    
T = Trace of Precipitation, MM = Missing Value Source: Averaged Metar Reports

Daily Weather History Graph

Daily Weather History Graph

Search for Another Location

Airport or City:

Astronomy

Sep. 15, 2019 Rise Set
Actual Time 7:15 AM EDT 7:35 PM EDT
Civil Twilight 6:52 AM EDT 7:58 PM EDT
Nautical Twilight 6:24 AM EDT 8:25 PM EDT
Astronomical Twilight 5:57 AM EDT 8:53 PM EDT
Moon 8:47 PM EDT (9/15) 8:22 AM EDT (9/15)
Length of Visible Light 13h 06m
Length of Day
12h 19m
Full, 98% of the Moon is Illuminated
Sep 15
Full
Sep 21
Last Quarter
Sep 28
New
Oct 5
First Quarter
Oct 13
Full

Hourly Weather History & Observations

Time (EDT) Temp. Heat Index Dew Point Humidity Pressure Visibility Wind Dir Wind Speed Gust Speed Precip Events Conditions
12:53 AM 81.0 °F 86.7 °F 75.0 °F 82% 29.94 in 10.0 mi NE 6.9 mph - N/A   Clear
1:53 AM 80.1 °F 85.4 °F 75.9 °F 87% 29.92 in 10.0 mi NE 6.9 mph - N/A   Clear
2:53 AM 80.1 °F 85.4 °F 75.9 °F 87% 29.93 in 10.0 mi NNE 4.6 mph - N/A   Clear
3:53 AM 79.0 °F - 75.0 °F 88% 29.92 in 10.0 mi NE 4.6 mph - N/A   Clear
4:53 AM 78.1 °F - 75.0 °F 90% 29.92 in 10.0 mi NE 3.5 mph - N/A   Clear
5:53 AM 79.0 °F - 75.0 °F 88% 29.93 in 10.0 mi NNE 5.8 mph - N/A   Partly Cloudy
6:53 AM 79.0 °F - 75.0 °F 88% 29.92 in 10.0 mi NE 5.8 mph - N/A   Clear
7:53 AM 79.0 °F - 75.0 °F 88% 29.92 in 10.0 mi NE 6.9 mph - N/A   Clear
8:53 AM 82.9 °F 90.8 °F 75.9 °F 79% 29.93 in 10.0 mi NE 8.1 mph - N/A   Clear
9:53 AM 84.9 °F 93.3 °F 75.0 °F 72% 29.95 in 10.0 mi NE 8.1 mph - N/A   Clear
10:53 AM 87.1 °F 96.3 °F 75.0 °F 67% 29.95 in 10.0 mi ENE 5.8 mph - N/A   Partly Cloudy
11:53 AM 89.1 °F 99.1 °F 75.0 °F 63% 29.95 in 10.0 mi Calm Calm - N/A   Scattered Clouds
12:53 PM 88.0 °F 100.2 °F 77.0 °F 70% 29.94 in 10.0 mi West 9.2 mph - N/A   Scattered Clouds
1:53 PM 89.1 °F 101.4 °F 77.0 °F 67% 29.92 in 10.0 mi West 8.1 mph - N/A   Clear
2:53 PM 91.0 °F 106.2 °F 78.1 °F 66% 29.90 in 10.0 mi West 11.5 mph - N/A   Scattered Clouds
3:53 PM 91.0 °F 100.4 °F 73.9 °F 57% 29.88 in 10.0 mi West 11.5 mph - N/A   Partly Cloudy
4:06 PM 91.0 °F 100.4 °F 73.9 °F 57% 29.88 in 10.0 mi WNW 10.4 mph - N/A   Partly Cloudy
4:53 PM 90.0 °F 100.2 °F 75.0 °F 61% 29.88 in 10.0 mi West 12.7 mph - N/A   Partly Cloudy
5:49 PM 89.6 °F 102.2 °F 77.0 °F 66% 29.90 in 10.0 mi WNW 13.8 mph - N/A Thunderstorm Partly Cloudy
5:53 PM 89.1 °F 100.2 °F 75.9 °F 65% 29.91 in 10.0 mi WNW 12.7 mph - N/A Thunderstorm Partly Cloudy
6:20 PM 84.9 °F 92.1 °F 73.9 °F 69% 29.91 in 10.0 mi North 13.8 mph - N/A   Mostly Cloudy
6:27 PM 84.9 °F 90.7 °F 72.0 °F 65% 29.91 in 10.0 mi NNW 8.1 mph - N/A   Scattered Clouds
6:53 PM 84.0 °F 90.2 °F 73.0 °F 69% 29.92 in 10.0 mi NNW 6.9 mph - N/A   Mostly Cloudy
7:16 PM 84.0 °F 90.2 °F 73.0 °F 69% 29.93 in 10.0 mi Calm Calm - 0.00 in Rain , Thunderstorm Light Thunderstorms and Rain
7:32 PM 84.0 °F 91.2 °F 73.9 °F 72% 29.93 in 10.0 mi SE 4.6 mph - 0.00 in Thunderstorm Overcast
7:45 PM 81.0 °F 86.7 °F 75.0 °F 82% 29.93 in 10.0 mi SSE 8.1 mph - 0.00 in   Mostly Cloudy
7:53 PM 81.0 °F 86.2 °F 73.9 °F 79% 29.93 in 10.0 mi SE 3.5 mph - 0.00 in   Scattered Clouds
8:53 PM 82.0 °F 87.9 °F 73.9 °F 76% 29.93 in 10.0 mi Calm Calm - N/A   Clear
9:53 PM 82.0 °F 87.9 °F 73.9 °F 76% 29.94 in 10.0 mi Calm Calm - N/A   Clear
10:53 PM 82.0 °F 87.9 °F 73.9 °F 76% 29.94 in 10.0 mi Calm Calm - N/A   Clear
11:53 PM 82.0 °F 88.6 °F 75.0 °F 79% 29.94 in 10.0 mi Calm Calm - N/A   Clear